AirNav   ProFlight Series 2 Aviation Headset
 
 772 users online  

5PS2 Paoli Memorial Hospital Heliport
Paoli, Pennsylvania, USA

GOING TO PAOLI?


FAA INFORMATION EFFECTIVE 18 JUNE 2020

Location

FAA Identifier: 5PS2
Lat/Long: 40-02-35.9000N 075-30-00.5000W
40-02.598333N 075-30.008333W
40.0433056,-75.5001389
(estimated)
Elevation: 474 ft. / 144 m (estimated)
Variation: 11W (1985)
From city: 1 mile W of PAOLI, PA
Time zone: UTC -4 (UTC -5 during Standard Time)
Zip code: 19355

Heliport Operations

Heliport use: Private use, MEDICAL USE.
Activation date: 07/1987
Control tower: no
ARTCC: NEW YORK CENTER
FSS: WILLIAMSPORT FLIGHT SERVICE STATION
Attendance: UNATNDD
Wind indicator: yes
Segmented circle: no
Lights: FOR PERIMETER LGTS CALL 484-565-1044.

Heliport Communications

WX AWOS-3T at OQN (5 nm SW): 121.4 ((610) 692-6190)
WX ASOS at PTW (12 nm N): 119.425 (610-495-0823)
WX AWOS-3 at LOM (12 nm NE): 118.925 (215-646-1068)
WX ASOS at PHL (16 nm SE): PHONE 215-492-9617
WX AWOS-3 at MQS (17 nm W): 126.25 (610-384-6132)

Nearby radio navigation aids

VOR radial/distance  VOR name  Freq  Var
MXEr055/10.9MODENA VORTAC113.2009W
PTWr175/11.1POTTSTOWN VORTAC116.5009W
DQOr023/22.5DUPONT VORTAC114.0010W
OODr350/26.1WOODSTOWN VORTAC112.8010W
ARDr255/30.0YARDLEY VOR/DME108.2010W
ETXr174/33.3EAST TEXAS VOR/DME110.2009W
LRPr106/36.6LANCASTER VOR/DME117.3009W
VCNr331/39.0CEDAR LAKE VOR/DME115.2010W

 
NDB name  Hdg/Dist  Freq  Var  ID
AMBLER255/11.027512WING .. -. --.

Heliport Services

Runway Information

Helipad H1

Dimensions: 53 x 53 ft. / 16 x 16 m
Surface: concrete
Runway edge lights: PERI
Latitude: 40-02.598333N
Longitude: 075-30.008333W
Elevation: 474.0 ft.
Traffic pattern: leftleft
Obstructions: road

Heliport Ownership and Management from official FAA records

Ownership: Privately-owned
Owner: PAOLI MEMORIAL HOSPITAL
255 W LANCASTER AVE
PAOLI, PA 19301-1792
Phone 610-648-1000
Manager: MICHAEL BIONDI
255 W LANCASTER AVE
PAOLI, PA 19301-1792
Phone 484-565-1246

Additional Remarks

FOR CD CTC PHILADELPHIA APCH AT 800-354-9884.

Instrument Procedures

There are no published instrument procedures at 5PS2.

Some nearby airports with instrument procedures:

KOQN - Brandywine Regional Airport (5 nm SW)
N10 - Perkiomen Valley Airport (10 nm N)
KPTW - Heritage Field Airport (12 nm N)
KLOM - Wings Field Airport (12 nm NE)
N47 - Pottstown Municipal Airport (15 nm NW)
KPHL - Philadelphia International Airport (16 nm SE)
KMQS - Chester County G O Carlson Airport (17 nm W)
N57 - New Garden Airport (18 nm SW)
7N7 - Spitfire Aerodrome (19 nm S)
 
Loc | Ops | Rwys | IFR | FBO | Links
Com | Nav | Svcs | Stats | Notes
Area around 5PS2 (Paoli Memorial Hospital Heliport)
 
Road maps at: MapQuest Bing Google
 
Aerial photo
WARNING: Photo may not be current or correct
Aerial photo of 5PS2 (Paoli Memorial Hospital Heliport)
Photo courtesy of Mike Peterson, Paoli Hospital Safety and Security Department
Photo taken 25-Mar-2007

Do you have a better or more recent aerial photo of Paoli Memorial Hospital Heliport that you would like to share? If so, please send us your photo.

 
Sectional chart

 
Airport distance calculator
Flying to Paoli Memorial Hospital Heliport? Find the distance to fly.

From to 5PS2

Sunrise and sunset
Times for 05-Jul-2020
 Local
(UTC-4)
 Zulu
(UTC)
Morning civil twilight05:0809:08
Sunrise05:4009:40
Sunset20:3300:33
Evening civil twilight21:0501:05

Current date and time
Zulu (UTC)  06-Jul-2020 03:04:11
Local (UTC-4)  05-Jul-2020 23:04:11
 
METAR
KOQN 
5nm SW 
060255Z AUTO 24004KT 10SM CLR 26/20 A2999 RMK AO2
KPTW 
12nm N 
060254Z AUTO 00000KT 9SM CLR 24/18 A3000 RMK AO2 SLP152 T02440183 51016
KLOM 
12nm NE 
060255Z AUTO 25003KT 10SM CLR 27/20 A2998 RMK AO2 T02650197
KPHL 
16nm SE 
060254Z 26006KT 10SM SCT280 28/23 A2997 RMK AO2 SLP147 T02780228 51015
KMQS 
17nm W 
060255Z AUTO 26003KT 10SM CLR 25/21 A3002 RMK AO2
TAF
KPHL 
16nm SE 
052301Z 0523/0624 24007KT P6SM SCT080 FM061400 24006KT P6SM SCT030 FM061600 22008KT P6SM BKN060 FM062100 21008KT P6SM SHRA BKN060
NOTAMs
Click for the latest NOTAMs
NOTAMs are issued by the DoD/FAA and will open in a separate window not controlled by AirNav.

 

 
 

Would you like to see your business listed on this page?

 If your business provides an interesting product or service to pilots, flight crews, aircraft, or users of the Paoli Memorial Hospital Heliport, you should consider listing it here.  To start the listing process, click on the button below
 
Add a business
 

Other Pages about Paoli Memorial Hospital Heliport

www.jeffersonhealth.org/paoli
www.webspawner.com/...
 
Update a link
 
Copyright © AirNav, LLC. All rights reserved. Privacy Policy  Contact